TimeEDT,TemperatureF,Dew PointF,Humidity,Sea Level PressureIn,VisibilityMPH,Wind Direction,Wind SpeedMPH,Gust SpeedMPH,PrecipitationIn,Events,Conditions,WindDirDegrees,DateUTC
12:56 AM,73.0,57.9,59,29.99,10.0,SSW,10.4,-,N/A,,Scattered Clouds,200,2013-05-11 04:56:00
1:56 AM,72.0,57.9,61,29.98,10.0,SW,4.6,-,N/A,,Scattered Clouds,220,2013-05-11 05:56:00
2:56 AM,70.0,57.9,65,29.97,10.0,SSW,6.9,-,N/A,,Scattered Clouds,200,2013-05-11 06:56:00
3:56 AM,69.1,59.0,70,29.96,10.0,SSW,4.6,-,N/A,,Scattered Clouds,210,2013-05-11 07:56:00
4:56 AM,68.0,59.0,73,29.95,10.0,SSW,4.6,-,N/A,,Scattered Clouds,210,2013-05-11 08:56:00
5:56 AM,68.0,59.0,73,29.94,10.0,Calm,Calm,-,N/A,,Scattered Clouds,0,2013-05-11 09:56:00
6:56 AM,66.0,60.1,81,29.95,9.0,Calm,Calm,-,N/A,,Mostly Cloudy,0,2013-05-11 10:56:00
7:56 AM,68.0,61.0,78,29.94,9.0,Calm,Calm,-,N/A,,Mostly Cloudy,0,2013-05-11 11:56:00
8:56 AM,72.0,62.1,71,29.94,10.0,Calm,Calm,-,N/A,,Mostly Cloudy,0,2013-05-11 12:56:00
9:56 AM,75.9,61.0,60,29.94,10.0,SSW,8.1,-,N/A,,Mostly Cloudy,200,2013-05-11 13:56:00
10:56 AM,79.0,61.0,54,29.94,10.0,SW,4.6,-,N/A,,Mostly Cloudy,230,2013-05-11 14:56:00
11:56 AM,82.0,60.1,47,29.93,10.0,WSW,11.5,16.1,N/A,,Mostly Cloudy,240,2013-05-11 15:56:00
12:56 PM,84.0,61.0,46,29.91,10.0,WSW,13.8,-,N/A,,Mostly Cloudy,250,2013-05-11 16:56:00
1:56 PM,82.9,61.0,47,29.91,10.0,West,11.5,-,N/A,,Mostly Cloudy,260,2013-05-11 17:56:00
2:56 PM,82.9,62.1,49,29.89,10.0,WSW,11.5,-,N/A,,Overcast,240,2013-05-11 18:56:00
3:56 PM,82.9,61.0,47,29.87,10.0,SW,12.7,-,N/A,,Overcast,220,2013-05-11 19:56:00
4:56 PM,82.9,62.1,49,29.86,10.0,WSW,10.4,-,N/A,,Overcast,250,2013-05-11 20:56:00
5:56 PM,82.0,62.1,51,29.85,10.0,WSW,12.7,-,N/A,,Overcast,250,2013-05-11 21:56:00
6:56 PM,80.1,62.1,54,29.85,10.0,WSW,6.9,-,N/A,,Overcast,250,2013-05-11 22:56:00
7:56 PM,78.1,63.0,60,29.85,10.0,SW,5.8,-,N/A,,Overcast,220,2013-05-11 23:56:00
8:56 PM,75.9,63.0,64,29.86,10.0,SW,5.8,-,N/A,,Overcast,230,2013-05-12 00:56:00
9:56 PM,75.9,63.0,64,29.88,10.0,SW,6.9,-,N/A,,Overcast,220,2013-05-12 01:56:00
10:56 PM,73.9,63.0,68,29.86,10.0,SW,8.1,-,N/A,,Overcast,220,2013-05-12 02:56:00
11:56 PM,73.9,61.0,64,29.87,10.0,West,11.5,-,N/A,,Mostly Cloudy,270,2013-05-12 03:56:00